timestamp,wind_dir_avg,wind_spd_avg,wind_spd_max_dir,wind_spd_gust,battery_voltage,lat,long
2023-04-11 00:04:00+00:00,245.0,7.29,248.0,8.26,12.49,47.59359,-54.27349
2023-04-11 00:14:00+00:00,244.0,7.28,244.0,8.02,12.33,47.59359,-54.27349
2023-04-11 00:24:00+00:00,239.0,6.59,239.0,7.6,12.33,47.59359,-54.27349
2023-04-11 00:34:00+00:00,248.0,7.02,250.0,7.81,12.33,47.59359,-54.27349
2023-04-11 00:44:00+00:00,251.0,7.82,252.0,8.55,12.33,47.59359,-54.27349
2023-04-11 00:54:00+00:00,247.0,7.55,245.0,8.48,12.33,47.59359,-54.27349
2023-04-11 01:04:00+00:00,250.0,7.68,248.0,8.24,12.33,47.59359,-54.27349
2023-04-11 01:14:00+00:00,246.0,7.81,245.0,8.49,12.25,47.59359,-54.27349
2023-04-11 01:24:00+00:00,247.0,8.37,247.0,9.05,12.25,47.59359,-54.27349
2023-04-11 01:34:00+00:00,243.0,8.75,244.0,9.8,12.25,47.59359,-54.27349
2023-04-11 01:44:00+00:00,242.0,7.18,239.0,8.42,12.25,47.59359,-54.27349
2023-04-11 01:54:00+00:00,232.0,6.22,241.0,7.17,12.25,47.59359,-54.27349
2023-04-11 02:04:00+00:00,231.0,6.57,235.0,7.42,12.25,47.59359,-54.27349
2023-04-11 02:14:00+00:00,241.0,6.67,242.0,7.75,12.25,47.59359,-54.27349
2023-04-11 02:24:00+00:00,232.0,6.0,238.0,7.21,12.25,47.59359,-54.27349
2023-04-11 02:34:00+00:00,240.0,6.45,243.0,7.77,12.25,47.59359,-54.27349
2023-04-11 02:44:00+00:00,241.0,7.88,244.0,8.95,12.25,47.59359,-54.27349
2023-04-11 02:54:00+00:00,239.0,7.2,236.0,8.36,12.25,47.59359,-54.27349
2023-04-11 03:04:00+00:00,240.0,6.01,242.0,7.02,12.25,47.59359,-54.27349
2023-04-11 03:14:00+00:00,239.0,5.54,249.0,6.43,12.25,47.59359,-54.27349
2023-04-11 03:24:00+00:00,235.0,5.0,235.0,5.6,12.25,47.59359,-54.27349
2023-04-11 03:34:00+00:00,168.0,4.06,158.0,4.95,12.25,47.59359,-54.27349
2023-04-11 03:44:00+00:00,224.0,5.05,229.0,6.34,12.25,47.59359,-54.27349
2023-04-11 03:54:00+00:00,164.0,6.23,169.0,7.01,12.25,47.59359,-54.27349
2023-04-11 04:04:00+00:00,155.0,5.62,152.0,6.34,12.25,47.59359,-54.27349
2023-04-11 04:14:01+00:00,160.0,5.4,157.0,6.07,12.25,47.59359,-54.27349
2023-04-11 04:24:01+00:00,160.0,4.92,156.0,5.99,12.25,47.59359,-54.27349
2023-04-11 04:34:01+00:00,155.0,4.7,154.0,5.26,12.25,47.59359,-54.27349
2023-04-11 04:44:01+00:00,193.0,5.08,216.0,6.51,12.25,47.59359,-54.27349
2023-04-11 04:54:01+00:00,198.0,6.04,214.0,7.23,12.25,47.59359,-54.27349
2023-04-11 05:04:01+00:00,203.0,6.25,212.0,7.53,12.25,47.59359,-54.27349
2023-04-11 05:14:00+00:00,211.0,8.23,212.0,9.03,12.17,47.59359,-54.27349
2023-04-11 05:24:00+00:00,209.0,8.25,213.0,9.59,12.17,47.59359,-54.27349
2023-04-11 05:34:00+00:00,212.0,8.94,215.0,9.9,12.17,47.59359,-54.27349
2023-04-11 05:44:00+00:00,216.0,8.15,216.0,9.32,12.17,47.59359,-54.27349
2023-04-11 05:54:00+00:00,216.0,8.01,212.0,8.84,12.17,47.59359,-54.27349
2023-04-11 06:04:00+00:00,214.0,7.5,209.0,8.33,12.17,47.59359,-54.27349
2023-04-11 06:14:00+00:00,214.0,7.52,213.0,8.32,12.17,47.59359,-54.27349
2023-04-11 06:24:00+00:00,211.0,6.06,217.0,7.38,12.17,47.59359,-54.27349
2023-04-11 06:34:00+00:00,201.0,5.33,218.0,6.3,12.17,47.59359,-54.27349
2023-04-11 06:44:00+00:00,229.0,4.78,229.0,5.8,12.17,47.59359,-54.27349
2023-04-11 06:54:00+00:00,193.0,4.95,217.0,6.38,12.17,47.59359,-54.27349
2023-04-11 07:04:00+00:00,199.0,5.93,213.0,7.42,12.17,47.59359,-54.27349
2023-04-11 07:14:00+00:00,196.0,6.71,212.0,7.98,12.17,47.59359,-54.27349
2023-04-11 07:24:00+00:00,217.0,6.72,215.0,7.39,12.17,47.59359,-54.27349
2023-04-11 07:34:00+00:00,222.0,6.17,221.0,7.12,12.17,47.59359,-54.27349
2023-04-11 07:44:00+00:00,229.0,6.27,230.0,6.8,12.17,47.59359,-54.27349
2023-04-11 07:54:00+00:00,229.0,6.01,232.0,6.49,12.17,47.59359,-54.27349
2023-04-11 08:04:00+00:00,230.0,5.71,232.0,6.45,12.17,47.59359,-54.27349
2023-04-11 08:14:00+00:00,228.0,4.55,230.0,5.14,12.09,47.59359,-54.27349
2023-04-11 08:24:00+00:00,208.0,4.68,222.0,5.82,12.09,47.59359,-54.27349
2023-04-11 08:34:00+00:00,184.0,3.56,225.0,5.5,12.09,47.59359,-54.27349
2023-04-11 08:44:00+00:00,158.0,4.7,158.0,5.12,12.09,47.59359,-54.27349
2023-04-11 08:54:00+00:00,158.0,3.78,152.0,4.57,12.09,47.59359,-54.27349
2023-04-11 09:04:00+00:00,171.0,3.49,210.0,4.33,12.09,47.59359,-54.27349
2023-04-11 09:14:00+00:00,178.0,6.47,197.0,7.91,12.09,47.59359,-54.27349
2023-04-11 09:24:00+00:00,228.0,6.86,227.0,7.54,12.09,47.59359,-54.27349
2023-04-11 09:34:00+00:00,228.0,7.76,230.0,8.66,12.09,47.59359,-54.27349
2023-04-11 09:44:00+00:00,224.0,7.77,222.0,8.5,12.09,47.59359,-54.27349
2023-04-11 09:54:00+00:00,224.0,7.28,223.0,8.35,12.09,47.59359,-54.27349
2023-04-11 10:04:00+00:00,223.0,6.82,220.0,7.59,12.09,47.59359,-54.27349
2023-04-11 10:14:00+00:00,226.0,4.88,230.0,5.69,13.21,47.59359,-54.27349
2023-04-11 10:24:00+00:00,199.0,4.04,221.0,5.38,13.21,47.59359,-54.27349
2023-04-11 10:34:00+00:00,183.0,5.12,212.0,6.87,13.21,47.59359,-54.27349
2023-04-11 10:44:00+00:00,204.0,7.98,207.0,9.25,13.21,47.59359,-54.27349
2023-04-11 10:54:00+00:00,210.0,9.34,210.0,10.33,13.21,47.59359,-54.27349
2023-04-11 11:04:00+00:00,212.0,9.6,208.0,10.8,13.21,47.59359,-54.27349
2023-04-11 11:14:00+00:00,210.0,10.41,212.0,11.67,13.53,47.59359,-54.27349
2023-04-11 11:24:00+00:00,212.0,8.89,215.0,10.57,13.53,47.59359,-54.27349
2023-04-11 11:34:00+00:00,209.0,9.17,208.0,10.71,13.53,47.59359,-54.27349
2023-04-11 11:44:00+00:00,208.0,8.59,210.0,10.14,13.53,47.59359,-54.27349
2023-04-11 11:54:00+00:00,213.0,8.48,215.0,9.45,13.53,47.59359,-54.27349
2023-04-11 12:04:00+00:00,213.0,8.49,213.0,9.79,13.53,47.59359,-54.27349
2023-04-11 12:14:00+00:00,213.0,8.72,210.0,9.99,13.68,47.59359,-54.27349
2023-04-11 12:24:00+00:00,212.0,7.91,217.0,9.11,13.68,47.59359,-54.27349
2023-04-11 12:34:00+00:00,214.0,7.66,214.0,8.8,13.68,47.59359,-54.27349
2023-04-11 12:44:00+00:00,212.0,9.16,213.0,10.22,13.68,47.59359,-54.27349
2023-04-11 12:54:00+00:00,210.0,9.62,209.0,10.85,13.68,47.59359,-54.27349
2023-04-11 13:04:00+00:00,210.0,10.75,209.0,12.07,13.68,47.59359,-54.27349
2023-04-11 13:14:00+00:00,209.0,10.41,207.0,12.02,14.32,47.59359,-54.27349
2023-04-11 13:24:00+00:00,214.0,9.94,214.0,11.16,14.32,47.59359,-54.27349
2023-04-11 13:34:00+00:00,212.0,11.46,213.0,12.83,14.32,47.59359,-54.27349
2023-04-11 13:44:00+00:00,211.0,11.76,209.0,12.72,14.32,47.59359,-54.27349
2023-04-11 13:54:00+00:00,211.0,12.26,213.0,13.53,14.32,47.59359,-54.27349
2023-04-11 14:04:00+00:00,212.0,11.64,210.0,12.95,14.32,47.59359,-54.27349
2023-04-11 14:14:00+00:00,211.0,12.09,210.0,13.78,14.4,47.59359,-54.27349
2023-04-11 14:24:00+00:00,214.0,11.83,210.0,12.98,14.4,47.59359,-54.27349
2023-04-11 14:34:00+00:00,210.0,11.23,211.0,12.61,14.4,47.59359,-54.27349
2023-04-11 14:44:00+00:00,208.0,11.51,209.0,13.07,14.4,47.59359,-54.27349
2023-04-11 14:54:00+00:00,210.0,11.69,211.0,12.9,14.4,47.59359,-54.27349
2023-04-11 15:04:00+00:00,208.0,11.31,209.0,12.46,14.4,47.59359,-54.27349
2023-04-11 15:14:00+00:00,206.0,10.67,209.0,11.93,13.76,47.59359,-54.27349
2023-04-11 15:24:00+00:00,208.0,10.93,208.0,12.17,13.76,47.59359,-54.27349
2023-04-11 15:34:00+00:00,207.0,11.54,211.0,12.48,13.76,47.59359,-54.27349
2023-04-11 15:44:00+00:00,207.0,11.5,208.0,13.35,13.76,47.59359,-54.27349
2023-04-11 15:54:00+00:00,208.0,11.09,204.0,12.48,13.76,47.59359,-54.27349
2023-04-11 16:04:00+00:00,210.0,10.73,214.0,11.89,13.76,47.59359,-54.27349
2023-04-11 16:14:00+00:00,206.0,10.97,202.0,12.37,14.48,47.59359,-54.27349
2023-04-11 16:24:00+00:00,205.0,11.21,204.0,12.54,14.48,47.59359,-54.27349
2023-04-11 16:34:00+00:00,205.0,11.6,206.0,12.55,14.48,47.59359,-54.27349
2023-04-11 16:44:00+00:00,206.0,10.88,210.0,12.54,14.48,47.59359,-54.27349
2023-04-11 16:54:00+00:00,206.0,11.0,209.0,12.26,14.48,47.59359,-54.27349
2023-04-11 17:04:00+00:00,204.0,10.25,205.0,11.83,14.48,47.59359,-54.27349
2023-04-11 17:14:00+00:00,202.0,11.6,205.0,13.21,13.68,47.59359,-54.27349
2023-04-11 17:24:00+00:00,204.0,11.38,205.0,13.57,13.68,47.59359,-54.27349
2023-04-11 17:34:00+00:00,203.0,10.91,207.0,11.93,13.68,47.59359,-54.27349
2023-04-11 17:44:00+00:00,208.0,10.9,211.0,12.46,13.68,47.59359,-54.27349
2023-04-11 17:54:00+00:00,206.0,11.15,205.0,12.98,13.68,47.59359,-54.27349
2023-04-11 18:04:00+00:00,208.0,11.72,210.0,13.15,13.68,47.59359,-54.27349
2023-04-11 18:14:01+00:00,206.0,11.09,204.0,13.18,14.4,47.59359,-54.27349
2023-04-11 18:24:01+00:00,207.0,11.02,206.0,13.37,14.4,47.59359,-54.27349
2023-04-11 18:34:01+00:00,207.0,10.33,204.0,11.55,14.4,47.59359,-54.27349
2023-04-11 18:44:01+00:00,206.0,10.12,206.0,11.44,14.4,47.59359,-54.27349
2023-04-11 18:54:01+00:00,204.0,9.8,206.0,11.13,14.4,47.59359,-54.27349
2023-04-11 19:04:01+00:00,198.0,9.23,206.0,10.56,14.4,47.59359,-54.27349
2023-04-11 19:14:00+00:00,188.0,9.48,203.0,11.11,13.68,47.59359,-54.27349
2023-04-11 19:24:00+00:00,203.0,11.2,206.0,12.65,13.68,47.59359,-54.27349
2023-04-11 19:34:00+00:00,208.0,11.06,211.0,12.51,13.68,47.59359,-54.27349
2023-04-11 19:44:00+00:00,208.0,9.65,204.0,11.1,13.68,47.59359,-54.27349
2023-04-11 19:54:00+00:00,209.0,10.13,211.0,11.09,13.68,47.59359,-54.27349
2023-04-11 20:04:00+00:00,206.0,10.16,204.0,11.25,13.68,47.59359,-54.27349
2023-04-11 20:14:00+00:00,205.0,10.89,205.0,12.83,13.76,47.59359,-54.27349
2023-04-11 20:24:00+00:00,207.0,11.41,208.0,12.86,13.76,47.59359,-54.27349
2023-04-11 20:34:00+00:00,210.0,11.17,201.0,13.07,13.76,47.59359,-54.27349
2023-04-11 20:44:00+00:00,208.0,11.74,208.0,13.22,13.76,47.59359,-54.27349
2023-04-11 20:54:00+00:00,209.0,10.68,205.0,11.93,13.76,47.59359,-54.27349
2023-04-11 21:04:00+00:00,211.0,9.68,213.0,10.94,13.76,47.59359,-54.27349
2023-04-11 21:14:00+00:00,213.0,10.11,216.0,11.17,13.53,47.59359,-54.27349
2023-04-11 21:24:00+00:00,211.0,10.62,209.0,11.62,13.53,47.59359,-54.27349
2023-04-11 21:34:00+00:00,211.0,10.64,214.0,12.19,13.53,47.59359,-54.27349
2023-04-11 21:44:00+00:00,209.0,10.0,211.0,11.93,13.53,47.59359,-54.27349
2023-04-11 21:54:00+00:00,210.0,9.23,211.0,11.26,13.53,47.59359,-54.27349
2023-04-11 22:04:00+00:00,209.0,9.29,213.0,10.59,13.53,47.59359,-54.27349
2023-04-11 22:14:00+00:00,211.0,7.87,207.0,9.5,12.97,47.59359,-54.27349
2023-04-11 22:24:00+00:00,207.0,9.24,205.0,11.03,12.97,47.59359,-54.27349
2023-04-11 22:34:00+00:00,196.0,8.83,204.0,10.18,12.97,47.59359,-54.27349
2023-04-11 22:44:00+00:00,192.0,7.07,210.0,8.49,12.97,47.59359,-54.27349
2023-04-11 22:54:00+00:00,204.0,8.14,215.0,10.11,12.97,47.59359,-54.27349
2023-04-11 23:04:00+00:00,208.0,9.25,211.0,10.7,12.97,47.59359,-54.27349
2023-04-11 23:14:01+00:00,203.0,8.95,210.0,11.11,12.41,47.59359,-54.27349
2023-04-11 23:24:01+00:00,200.0,7.08,210.0,8.71,12.41,47.59359,-54.27349
2023-04-11 23:34:01+00:00,218.0,7.64,219.0,9.02,12.41,47.59359,-54.27349
2023-04-11 23:44:01+00:00,217.0,6.68,215.0,8.0,12.41,47.59359,-54.27349
2023-04-11 23:54:01+00:00,200.0,4.12,217.0,6.26,12.41,47.59359,-54.27349
